User: anonymous   Login
Location: Cheching
(60.0667°N, 164.2167°W)
Time: 11:31:17
(UTC+00:00)
Language:

FENGYUN 1C DEB - Orbit

View from above orbital plane
View from above orbital plane
View from above satellite
View from above satellite

Ground track
Ground track

The orbit data is extracted from the following two-line orbital elements,

1 32304U 99025CWV 21262.66061921  .00000372  00000-0  14392-3 0  9995
2 32304  99.4087  42.8270 0065651  53.7579 306.9648 14.35430720340241
Epoch (UTC): 19 September 2021 15:51:17
Eccentricity: 0.0065651
inclination: 99.4087°
perigee height: 726 km
apogee height: 820 km
right ascension of ascending node: 42.8270°
argument of perigee: 53.7579°
revolutions per day: 14.35430720
mean anomaly at epoch: 306.9648°
orbit number at epoch: 34024

The dashed part of the orbit path shows where the satellite is in the earth's shadow,  

DLR